Zurück zum Katalog

STARLINK-3523

AktivKommunikationVLEO
NORAD 51729·PAYLOAD·🇺🇸 United States

Gestartet Feb 21, 2022 von Cape Canaveral Space Force Station

Loading…

Nächste Überflüge (nächste 24 Stunden)

TLE

AktuellSource: CelesTrak SupGP

Epoche: Sep 15, 2026, 01:24 UTC

1 51729C 22016R   26258.05881944 -.00020695  00000+0 -61149-3 0  2582
2 51729  53.1578 174.8446 0001340  84.0545 345.2898 15.34398378    14

Verfolge STARLINK-3523 in Echtzeit mit AllMySat

Download on the App Store